EDT,Max TemperatureF,Mean TemperatureF,Min TemperatureF,Max Dew PointF,MeanDew PointF,Min DewpointF,Max Humidity, Mean Humidity, Min Humidity, Max Sea Level PressureIn, Mean Sea Level PressureIn, Min Sea Level PressureIn, Max VisibilityMiles, Mean VisibilityMiles, Min VisibilityMiles, Max Wind SpeedMPH, Mean Wind SpeedMPH, Max Gust SpeedMPH,PrecipitationIn, CloudCover, Events, WindDirDegrees
2011-10-1,46,42,37,45,40,36,100,92,81,30.10,30.00,29.94,10,6,2,17,11,25,0.13,8,Rain,327
2011-10-2,59,47,35,37,34,28,93,66,36,30.13,30.08,30.01,10,10,10,18,10,28,0.00,3,,323
2011-10-3,57,46,35,48,42,36,100,82,58,30.15,30.10,30.05,10,10,10,12,5,17,0.00,6,Rain,314
2011-10-4,69,60,50,52,50,48,100,81,53,30.30,30.25,30.18,10,9,7,7,2,,0.00,6,,292
2011-10-5,77,59,41,54,46,41,100,73,32,30.33,30.28,30.23,10,5,0,5,1,,0.00,3,Fog,258
2011-10-6,77,60,44,54,49,43,100,73,36,30.35,30.31,30.28,10,8,0,6,0,,0.00,0,Fog,165
2011-10-7,78,61,44,54,50,43,100,75,39,30.43,30.37,30.33,10,8,0,9,1,,0.00,0,Fog,135
2011-10-8,78,63,48,54,50,45,94,67,32,30.45,30.40,30.36,10,10,10,9,3,,0.00,0,,150
2011-10-9,75,60,46,52,46,41,100,66,31,30.44,30.38,30.32,10,9,4,9,2,,0.00,0,,136
2011-10-10,78,63,48,52,48,45,88,64,30,30.31,30.26,30.15,10,10,10,8,3,,0.00,0,,110
2011-10-11,77,62,46,52,46,41,94,66,28,30.14,30.09,30.00,10,10,10,13,2,18,0.00,0,,134
2011-10-12,60,58,55,55,54,50,100,90,72,29.98,29.90,29.78,10,6,2,8,3,,0.38,7,Rain,120
2011-10-13,64,58,53,55,54,52,100,88,68,29.76,29.66,29.51,10,6,2,9,4,,0.01,7,,147
2011-10-14,60,56,51,55,47,37,94,76,42,29.58,29.51,29.44,10,9,3,23,10,32,0.02,7,Rain,257
2011-10-15,60,52,44,41,36,32,76,57,34,29.88,29.76,29.67,10,10,7,25,13,36,0.00,1,,255
2011-10-16,71,58,44,50,39,36,77,56,35,29.97,29.85,29.68,10,10,10,18,8,28,0.00,5,Rain,229
2011-10-17,62,50,37,37,32,25,87,53,25,29.92,29.87,29.82,10,10,10,18,7,23,0.00,1,,243
2011-10-18,53,47,41,43,40,36,87,74,51,29.88,29.81,29.73,10,10,7,12,4,,0.07,7,Rain-Thunderstorm,7
2011-10-19,53,48,44,52,47,41,100,94,87,29.67,29.46,29.25,10,6,3,12,7,17,0.69,8,Rain,33
2011-10-20,46,44,41,45,41,37,100,92,81,29.66,29.34,29.18,10,7,2,18,14,31,0.07,8,Rain,228
2011-10-21,51,46,37,41,38,36,100,76,54,30.10,30.00,29.82,10,10,7,14,8,21,0.00,7,,265
2011-10-22,57,44,32,41,35,32,100,75,41,30.15,30.11,30.08,10,7,0,7,1,,0.00,1,Fog,248
2011-10-23,62,48,33,41,36,32,100,70,37,30.10,30.05,30.00,10,10,10,13,3,18,0.00,2,,182
2011-10-24,59,52,46,50,43,36,100,78,48,30.12,30.01,29.94,10,9,3,16,8,22,0.24,4,Rain-Thunderstorm,224
2011-10-25,66,49,32,41,35,32,100,66,32,30.23,30.14,29.96,10,10,10,15,4,21,0.00,0,,180
2011-10-26,68,59,50,52,46,37,94,69,45,29.91,29.84,29.77,10,9,2,13,7,21,0.97,6,Rain-Thunderstorm,196
2011-10-27,48,44,41,46,42,37,100,92,87,29.91,29.82,29.78,10,8,3,14,9,22,0.15,8,Rain,354
2011-10-28,46,38,30,39,33,30,100,89,61,30.23,30.16,30.12,10,6,0,6,1,,0.00,1,Fog,90
2011-10-29,50,38,26,36,31,27,100,81,50,30.10,30.07,30.02,10,8,0,10,1,20,0.00,3,Fog-Rain-Thunderstorm,224
2011-10-30,51,38,26,37,31,27,100,78,44,30.27,30.19,30.12,10,7,0,13,2,,0.00,1,Fog,167
2011-10-31,51,45,39,41,34,30,87,67,47,30.16,30.10,30.06,10,10,10,16,7,30,0.00,7,Rain-Thunderstorm,164